Regional Weather Roundup
Issued by NWS Sterling, VA

Home | Current Version | Previous Version | Text Only | Print | Product List | Glossary Off
Versions: 1 2 3 4 5 6 7 8 9 10 11 12 13 14 15 16 17 18 19 20 21 22 23 24 25 26 27 28 29 30 31 32 33 34 35 36 37 38 39 40 41 42 43 44 45 46 47 48 49 50

000
ASUS41 KLWX 190010
RWRLWX

REGIONAL WEATHER ROUNDUP
NATIONAL WEATHER SERVICE BALTIMORE MD/WASHINGTON DC
700 PM EST WED JAN 18 2017

Note: "FAIR" indicates few or no clouds below 12,000 feet
with no significant weather and/or obstructions to visibility.
 TC=TEMPERATURE CELSIUS

 * =Non NWS site. Station does not report precipitation (e.g. rain,
    snow, etc.), thunder, or fog.

DCZ001-MDZ009-015-VAZ040>042-051-053>054-190100-
WASHINGTON METRO

CITY           SKY/WX    TMP DP  RH WIND       PRES   REMARKS
WASHINGTON NAT PTCLDY    50  36  58 NW15      30.06R
DULLES         PTCLDY    47  34  60 N9        30.07R
ANDREWS AFB    CLEAR     48  35  60 NW9       30.04R
FT BELVOIR     CLEAR     50  36  57 N10       30.06R
QUANTICO       CLEAR     51  38  60 N12       30.06R
COLLEGE PARK*  MOCLDY    48  34  57 NW9       30.05S
LEESBURG*      PTCLDY    46  37  71 N6        30.08R
MANASSAS*      CLEAR    N/A N/A N/A N6        30.08R
GAITHERSBURG*  CLOUDY    45  32  61 NW5       30.09R

$$

MDZ006>007-011-014-190100-
BALTIMORE METRO

CITY           SKY/WX    TMP DP  RH WIND       PRES   REMARKS
BWI AIRPORT    MOCLDY    50  37  61 NW8       30.04R
MD SCIENCE CTR   N/A     52  35  52 MISG      30.04R
MARTIN STATE   CLOUDY    52  43  71 NW9       30.06R
ANNAPOLIS      CLOUDY    52  37  56 NW8       30.04R
FORT MEADE*    CLOUDY    48  36  61 NW5       30.07R

$$

MDZ012-015-019>023-190100-
MARYLAND EASTERN SHORE

CITY           SKY/WX    TMP DP  RH WIND       PRES   REMARKS
OCEAN CITY     CLOUDY    48  44  86 N9        30.02R
SALISBURY      CLOUDY    51  41  68 N12       30.02R
BAY BRIDGE AP* CLOUDY    48  37  66 NW8       30.04S
CAMBRIDGE*     CLOUDY    50  41  71 N3        30.04R
EASTON*        CLOUDY    52  41  66 N6        30.08R

$$

MDZ017>025-190100-
SOUTHERN MARYLAND

CITY           SKY/WX    TMP DP  RH WIND       PRES   REMARKS
PATUXENT RIVER CLOUDY    51  40  65 NW12      30.03R
ST INIGOES     CLOUDY    54  38  54 VRB5      30.03R
LEONARDTOWN*   CLOUDY    52  36  54 NW7       30.05R

$$

MDZ003>005-190100-
NORTH CENTRAL MARYLAND

CITY           SKY/WX    TMP DP  RH WIND       PRES   REMARKS
FREDERICK*     CLOUDY    46  37  71 N3        30.09R
HAGERSTOWN APT CLOUDY    45  34  65 NW9       30.06R
WESTMINSTER*   CLOUDY    45  36  70 NW7       30.04S

$$

MDZ501>502-190100-
WESTERN MARYLAND

CITY           SKY/WX    TMP DP  RH WIND       PRES   REMARKS
OAKLAND*         N/A     32  32 100 W7        30.05R FOG
CUMBERLAND*    CLOUDY    45  34  65 W6        30.15R

$$

VAZ025>031-190100-
SHENANDOAH VALLEY

CITY           SKY/WX    TMP DP  RH WIND       PRES   REMARKS
WINCHESTER*    PTCLDY    41  34  75 NW14      30.07S
FRONT ROYAL*   CLEAR     45  34  65 NW7       30.06R
LURAY*         CLEAR     45  37  76 CALM      30.06R
NEW MARKET*    CLEAR     47  32  57 CALM      30.05R
STAUNTON*      CLEAR     44  33  63 CALM      30.08R
WAYNESBORO*    CLEAR     44  33  64 W3        30.05R

$$

WVZ021-048>050-054>055-190100-
EASTERN WEST VIRGINIA PANHANDLE

CITY           SKY/WX    TMP DP  RH WIND       PRES   REMARKS
MARTINSBURG    CLOUDY    45  34  65 NW6       30.07R
PETERSBURG*    MOCLDY    46  36  68 CALM      30.09R

$$

VAZ036>039-050-190100-
CENTRAL FOOTHILLS

CITY           SKY/WX    TMP DP  RH WIND       PRES   REMARKS
CHARLOTTESVILL CLEAR     52  35  52 N5        30.03R
CULPEPER*      CLEAR     48  37  64 NE8       30.06R
ORANGE*          N/A     43  36  75 CALM      30.06R
GORDONSVILLE*  CLEAR     44  38  78 CALM      30.03R
WARRENTON*     CLEAR     48  33  57 N6        30.05R

$$

VAZ055>057-190100-
NORTH AND CENTRAL PIEDMONT

CITY           SKY/WX    TMP DP  RH WIND       PRES   REMARKS
FREDERICKSBRG* CLEAR     51  39  62 N6        30.04R
STAFFORD*      CLEAR     49  37  62 N8        30.08S

$$

NCZ024-NYZ072-PAZ021-071-VAZ022-071-190100-
OTHER REGIONAL OBSERVATIONS

CITY           SKY/WX    TMP DP  RH WIND       PRES   REMARKS
NEW YORK CITY  CLOUDY    40  37  89 N8        30.06R
PHILADELPHIA   CLOUDY    47  39  74 N13       30.05R
PITTSBURGH     CLOUDY    39  35  86 W5        30.09S
ROANOKE        PTCLDY    47  36  65 NW13      30.10S
RICHMOND       PTCLDY    51  39  63 NE5       30.03R
RALEIGH        PTCLDY    57  34  41 CALM      30.03R

$$

ANZ530>537-190100-
MARINE OBSERVATIONS

STATION/POSITION TIME  TEMP    WIND        PRES
                       AIR SEA DIR/SP/G
                 (UTC) (F)     (DEG/KT/KT) (MB)
THOMAS PT LIGHT  0000   52 39  320/  9/ 11   N/A
BALT KEY BRIDGE  2342   49     290/ 10/ 12 1017.3R
COVE POINT       2342   48     350/ 12/ 13 1017.6R
LEWISETTA        2342   53 43  340/  7/  8 1016.7R
SOLOMONS ISLAND  2342   51 42  330/  7/ 10   N/A
PINEY POINT      2342          360/  8/  8   N/A

$$




USA.gov is the U.S. government's official web portal to all federal, state and local government web resources and services.